[Date Prev][Date Next][Thread Prev][Thread Next] - [Date Index][Thread Index][Author Index]
2 Line ISS Keps 7-9
- Subject: [sarex] 2 Line ISS Keps 7-9
- From: "Dave Larsen PhD" <doc@xxxxxxxxxxx>
- Date: Tue, 9 Jul 2002 03:04:10 -0700
ISS
1 25544U 98067A 02190.13401909 .00017303 00000-0 22566-3 0 6433
2 25544 51.6385 302.8031 0007890 337.0718 83.3651 15.58778298207454
----
Via the sarex mailing list at AMSAT.ORG courtesy of AMSAT-NA.
To unsubscribe, send "unsubscribe sarex" to Majordomo@amsat.org
AMSAT Home